Regional Weather Roundup
Issued by NWS

Home | Current Version | Previous Version | Graphics & Text | Print | Product List | Glossary On
Versions: 1 2 3 4 5 6 7 8 9 10 11 12 13 14 15 16 17 18 19 20 21 22 23 24 25 26 27 28 29 30 31 32 33 34 35 36 37 38 39 40 41 42 43 44 45 46 47 48 49 50
000
ASUS43 KOAX 252210
RWRNE

WEATHER ROUNDUP FOR NEBRASKA
NATIONAL WEATHER SERVICE OMAHA NE
500 PM CDT MON MAY 25 2015

NOTES: SATELLITE DATA IS BEING USED TO AUGMENT CLOUD COVER ABOVE
       12000 FEET.
       "FAIR" INDICATES FEW OR NO CLOUDS BELOW 12,000 FEET WITH NO
       SIGNIFICANT WEATHER AND/OR OBSTRUCTIONS TO VISIBILITY.

  * THESE STATIONS DO NOT REPORT WEATHER SUCH AS RAIN...SNOW OR FOG.

NEZ001>004-019>022-054>056-252300-
NEBRASKA PANHANDLE

CITY           SKY/WX    TMP DP  RH WIND       PRES   REMARKS
SCOTTSBLUFF    CLOUDY    57  52  83 SW5       29.89S
ALLIANCE       LGT RAIN  55  51  86 CALM      29.87S
CHADRON        LGT RAIN  57  53  86 N3        29.85R
KIMBALL          N/A    N/A N/A N/A MISG        N/A
SIDNEY         LGT RAIN  54  51  90 N17G23    29.90R
$$

NEZ057>060-069>072-079>082-252300-
SOUTHWEST NEBRASKA

CITY           SKY/WX    TMP DP  RH WIND       PRES   REMARKS
NORTH PLATTE   MOSUNNY   69  52  54 W13       29.80S
IMPERIAL       CLOUDY    59  50  72 W20G25    29.82F
LEXINGTON      SUNNY     74  53  47 W12G17    29.76F
MCCOOK         MOSUNNY   74  49  41 W15       29.78F
OGALLALA       PTSUNNY   63  55  74 W15G22    29.83S
$$

NEZ005>010-023>029-035>040-094-252300-
NORTH CENTRAL NEBRASKA

CITY           SKY/WX    TMP DP  RH WIND       PRES   REMARKS
VALENTINE      LGT RAIN  56  54  93 NW3       29.83F
AINSWORTH      PTSUNNY   62  57  84 NW13      29.80F
BROKEN BOW     MOSUNNY   71  54  54 SW7       29.77F
O`NEILL        PTSUNNY   74  54  50 W9        29.78R
ORD            MOSUNNY   71  52  50 SW13      29.75S
THEDFORD       LGT RAIN  61  54  76 N5        29.81F
$$

NEZ041-046>049-061>064-073>077-083>087-252300-
SOUTH CENTRAL NEBRASKA

CITY           SKY/WX    TMP DP  RH WIND       PRES   REMARKS
GRAND ISLAND   PTSUNNY   75  55  49 S9G16     29.77F
AURORA         MOSUNNY   76  55  47 SW16      29.77F
HASTINGS       SUNNY     75  56  51 SW7       29.77F
HEBRON         MOSUNNY   78  58  50 S10       29.75F
HOLDREGE       SUNNY     75  50  41 W15       29.76F
KEARNEY *      PTSUNNY   75  54  46 SW13      29.76F
YORK           PTSUNNY   75  57  53 SW7       29.76F
$$

NEZ011>018-030>034-042>045-252300-
NORTHEAST NEBRASKA

CITY           SKY/WX    TMP DP  RH WIND       PRES   REMARKS
NORFOLK        MOSUNNY   75  55  49 S15G24    29.75S
ALBION         MOSUNNY   76  53  44 SW8G18    29.76F
BLAIR          MOSUNNY   79  59  50 S15G23    29.76F
COLUMBUS *     MOSUNNY   77  55  47 S14G20    29.79F
FREMONT        MOSUNNY   79  56  45 S10G16    29.76F
TEKAMAH        MOSUNNY   82  57  42 SW14      29.75F
WAYNE          PTSUNNY   76  57  51 SW16G22   29.76S
$$

NEZ050>053-065>068-078-088>093-252300-
SOUTHEAST NEBRASKA

CITY           SKY/WX    TMP DP  RH WIND       PRES   REMARKS
LINCOLN        MOSUNNY   79  61  53 SW10      29.75F
OMAHA EPPLEY   MOSUNNY   81  61  50 S15       29.75F
BEATRICE       SUNNY     78  61  55 SW15G21   29.75F
FALLS CITY     LGT RAIN  74  65  73 SE14G22   29.74F
NEBRASKA CITY  MOSUNNY   77  59  53 S14       29.78F
PLATTSMOUTH    MOSUNNY   78  58  51 S13       29.77F
$$

NEZ044-045-051>053-067-252300-
OMAHA AREA

CITY           SKY/WX    TMP DP  RH WIND       PRES   REMARKS
OMAHA EPPLEY   MOSUNNY   81  61  50 S15       29.75F
BLAIR          MOSUNNY   79  59  50 S15G23    29.76F
FREMONT        MOSUNNY   79  56  45 S10G16    29.76F
MILLARD        PTSUNNY   79  62  54 S9G16     29.75F
OFFUTT AFB     MOSUNNY   78  61  55 S12       29.75F
PLATTSMOUTH    MOSUNNY   78  58  51 S13       29.77F
WAHOO          MOCLDY    78  60  52 S10       29.75F
$$


USA.gov is the U.S. government's official web portal to all federal, state and local government web resources and services.